Location: Unspecified
(48.2082°N, 0.0000°E)
Time: 11:09:41
(UTC+00:00)

Tiros 1 despin weight - Pass Details

Date: 21 June 2019
Orbit: 594 x 643 km, 48.2° (Epoch: 16 October)

Event Time Altitude Azimuth Distance (km) Brightness Sun altitude
Rises 23:41:54 0° 230° (SW) 2,842 - -18.2°
Reaches altitude 10° 23:44:16 10° 224° (SW) 1,935 - -18.2°
Exits shadow 23:48:04 41° 169° (SSE) 865 ? -18.3°
Maximum altitude 23:48:28 42° 153° (SSE) 849 ? -18.3°
Drops below altitude 10° 23:52:38 10° 83° (E) 1,928 ? -18.3°
Sets 23:55:00 0° 76° (ENE) 2,830 ? -18.3°
